Location: Great Snoring
(52.8667°N, 0.8833°E)
Time: 20:25:16
(UTC+00:00)

Meteor 2-10 - Pass Details

Date: 19 May 2025
Orbit: 736 x 866 km, 81.2° (Epoch: 21 June)

Event Time Altitude Azimuth Distance (km) Brightness Sun altitude
Rises 21:00:38 0° 348° (NNW) 3,461 8.6 -8.2°
Reaches altitude 10° 21:03:09 10° 352° (N) 2,514 7.7 -8.4°
Maximum altitude 21:08:48 59° 72° (ENE) 979 4.5 -9.0°
Enters shadow 21:13:59 12° 151° (SSE) 2,328 5.8 -9.4°
